Alturas, CA

10:48 AM PDT on May 23, 2018 (GMT -0700)
Alturas Municipal

Weather History for KAAT - April, 2012

Change the Weather History Date:

Monday, April 2, 2012

  Actual Average Record
Temperature  
Mean Temperature 38 °F 40 °F  
Max Temperature 56 °F 55 °F 84 °F (1966)
Min Temperature 19 °F 26 °F 12 °F (1976)
Degree Days  
Heating Degree Days 27 25  
Month to date heating degree days 58 50  
Since 1 July heating degree days 5541 5742  
Cooling Degree Days 0 0  
Month to date cooling degree days 0 0  
Year to date cooling degree days 0 0  
Moisture  
Dew Point 26 °F    
Average Humidity 63    
Maximum Humidity 96    
Minimum Humidity 30    
Precipitation  
Precipitation T in 0.05 in 0.55 in (1972)
Month to date precipitation 0.06 0.09  
Year to date precipitation 2.94 4.71  
Sea Level Pressure  
Sea Level Pressure 30.21 in    
Wind  
Wind Speed 2 mph (East)    
Max Wind Speed 9 mph    
Max Gust Speed 20 mph    
Visibility 9 miles    
Events Snow    
T = Trace of Precipitation, MM = Missing Value Source: NWS Daily Summary

Daily Weather History Graph

Daily Weather History Graph

Search for Another Location

Airport or City:

Astronomy

Apr. 02, 2012 Rise Set
Actual Time 6:42 AM PDT 7:29 PM PDT
Civil Twilight 6:14 AM PDT 7:57 PM PDT
Nautical Twilight 5:41 AM PDT 8:30 PM PDT
Astronomical Twilight 5:07 AM PDT 9:05 PM PDT
Moon 3:07 PM PDT (4/2) 4:02 AM PDT (4/2)
Length of Visible Light 13h 42m
Length of Day
12h 46m
Waxing Gibbous, 79% of the Moon is Illuminated
Apr 2
Waxing Gibbous
Apr 6
Full
Apr 13
Last Quarter
Apr 21
New
Apr 29
First Quarter

Hourly Weather History & Observations

Time (PDT) Temp. Windchill Dew Point Humidity Pressure Visibility Wind Dir Wind Speed Gust Speed Precip Events Conditions
12:55 AM 32.0 °F - 30.0 °F 92% 30.28 in 4.0 mi Calm Calm - 0.00 in Snow Light Snow
1:31 AM 30.2 °F - 28.4 °F 93% 30.24 in 10.0 mi Calm Calm - 0.00 in   Scattered Clouds
1:55 AM 30.0 °F - 28.0 °F 92% 30.27 in 10.0 mi Calm Calm - 0.00 in   Partly Cloudy
2:55 AM 28.9 °F - 27.0 °F 92% 30.29 in 10.0 mi Calm Calm - N/A   Scattered Clouds
3:55 AM 27.0 °F - 25.0 °F 92% 30.28 in 8.0 mi Calm Calm - N/A   Scattered Clouds
4:55 AM 23.0 °F - 21.9 °F 96% 30.28 in 10.0 mi Calm Calm - N/A   Clear
5:55 AM 21.9 °F 17.2 °F 19.9 °F 92% 30.31 in 10.0 mi South 3.5 mph - N/A   Clear
6:55 AM 21.9 °F - 19.9 °F 92% 30.33 in 6.0 mi Calm Calm - N/A   Clear
7:55 AM 28.0 °F - 26.1 °F 92% 30.32 in 5.0 mi Calm Calm - N/A   Clear
8:55 AM 32.0 °F 28.7 °F 27.0 °F 82% 30.31 in 10.0 mi NE 3.5 mph - N/A   Clear
9:55 AM 35.1 °F 32.2 °F 28.0 °F 76% 30.30 in 10.0 mi SE 3.5 mph - N/A   Clear
10:55 AM 37.9 °F - 28.9 °F 70% 30.30 in 10.0 mi Calm Calm - N/A   Clear
11:55 AM 42.1 °F 38.4 °F 27.0 °F 55% 30.27 in 10.0 mi East 5.8 mph - N/A   Clear
12:55 PM 46.9 °F - 27.0 °F 46% 30.24 in 10.0 mi Variable 4.6 mph - N/A   Clear
1:55 PM 48.0 °F - 25.0 °F 41% 30.21 in 10.0 mi Calm Calm - N/A   Clear
2:55 PM 51.1 °F - 25.0 °F 36% 30.17 in 10.0 mi Calm Calm - N/A   Clear
3:55 PM 53.1 °F - 26.1 °F 35% 30.14 in 10.0 mi East 5.8 mph - N/A   Clear
4:55 PM 54.0 °F - 28.0 °F 37% 30.12 in 10.0 mi East 6.9 mph - N/A   Clear
5:55 PM 55.0 °F - 25.0 °F 31% 30.10 in 10.0 mi Calm Calm - N/A   Clear
6:55 PM 54.0 °F - 27.0 °F 35% 30.10 in 10.0 mi NE 4.6 mph - N/A   Clear
7:55 PM 46.9 °F - 28.9 °F 50% 30.09 in 10.0 mi NE 3.5 mph - N/A   Clear
8:55 PM 39.0 °F - 30.0 °F 70% 30.11 in 10.0 mi Calm Calm - N/A   Clear
9:55 PM 36.0 °F - 28.9 °F 76% 30.11 in 10.0 mi Calm Calm - N/A   Clear
10:55 PM 35.1 °F 27.4 °F 28.0 °F 76% 30.09 in 6.0 mi ESE 10.4 mph 19.6 mph N/A   Haze
11:55 PM 32.0 °F - 26.1 °F 79% 30.09 in 5.0 mi Calm Calm - N/A   Haze